FW4413 Weather Reports


time (UTC)temp
C
wind
direction
speed
KPH
gust
KPH
rain 1hr
cm
rain 24hr
cm
rain mn
cm
humidity
%
barometer
mb
20260507085830 10 216 9.7 17.7 0.00 0.46 0.05 87 1011.9
20260507085332 10 257 9.7 19.3 0.00 0.46 0.05 88 1011.9
20260507084830 10 230 11.3 25.7 0.00 0.46 0.05 88 1011.8
20260507084331 10 238 9.7 25.7 0.00 0.46 0.05 88 1011.8
20260507083831 10 224 9.7 19.3 0.00 0.46 0.05 89 1011.6
20260507083330 10 246 8.0 19.3 0.00 0.46 0.05 89 1011.7
20260507082831 10 216 6.4 17.7 0.00 0.46 0.05 89 1011.6
20260507082331 10 236 8.0 17.7 0.00 0.46 0.05 90 1011.5
20260507081831 10 194 9.7 19.3 0.00 0.46 0.05 90 1011.5
20260507081332 10 224 8.0 19.3 0.00 0.46 0.05 90 1011.5
20260507080831 9 254 8.0 16.1 0.00 0.46 0.05 91 1011.5
20260507080331 9 266 8.0 16.1 0.00 0.46 0.05 91 1011.5
20260507080212 9 220 6.4 16.1 0.00 0.46 0.05 92 1011.4
20260507075858 9 234 6.4 16.1 0.00 0.46 0.05 92 1011.3
20260507074948 9 216 6.4 12.9 0.00 0.46 0.05 92 1011.3
20260507074854 9 222 6.4 12.9 0.00 0.46 0.05 92 1011.3
20260507073828 9 219 8.0 16.1 0.00 0.46 0.05 92 1011.2
20260507073328 9 217 6.4 16.1 0.00 0.46 0.05 92 1011.2
20260507072824 9 227 4.8 12.9 0.00 0.46 0.05 92 1011.2
20260507072325 9 210 4.8 12.9 0.00 0.46 0.05 92 1011.2
20260507071823 9 215 6.4 14.5 0.00 0.46 0.05 92 1011.1
20260507071325 9 223 8.0 14.5 0.00 0.46 0.05 92 1011.1
20260507070824 8 210 8.0 14.5 0.00 0.46 0.05 92 1011.1
20260507070323 8 217 6.4 14.5 0.00 0.46 0.05 92 1011.1
20260507065826 8 217 6.4 14.5 0.00 0.46 0.05 92 1011.0
20260507065322 8 217 4.8 11.3 0.00 0.46 0.05 92 1011.0
20260507065032 8 215 8.0 16.1 0.00 0.46 0.05 91 1011.0
20260507064901 8 217 6.4 14.5 0.00 0.46 0.05 92 1011.0
20260507063824 8 241 8.0 16.1 0.00 0.46 0.05 91 1010.9
20260507063320 8 224 6.4 14.5 0.00 0.46 0.05 91 1010.9
20260507062825 9 215 6.4 14.5 0.00 0.46 0.05 91 1010.8
20260507062326 9 215 6.4 14.5 0.00 0.46 0.05 90 1010.8
20260507061816 9 209 8.0 16.1 0.00 0.46 0.05 90 1010.7
20260507061316 9 222 8.0 16.1 0.00 0.46 0.05 90 1010.7
20260507061256 9 216 6.4 19.3 0.00 0.46 0.05 91 1010.4
20260507060925 9 223 8.0 17.7 0.00 0.46 0.05 91 1010.6
20260507060335 9 205 9.7 19.3 0.00 0.46 0.05 91 1010.6
20260507055943 9 213 8.0 19.3 0.00 0.46 0.05 91 1010.5
20260507054312 8 217 6.4 14.5 0.00 0.46 0.05 92 1010.4
20260507053813 8 202 6.4 14.5 0.00 0.46 0.05 92 1010.2
20260507053307 8 217 6.4 14.5 0.00 0.46 0.05 92 1010.2
20260507052806 8 227 6.4 14.5 0.00 0.46 0.05 92 1010.2
20260507052307 8 252 6.4 14.5 0.03 0.46 0.05 92 1010.3
20260507051809 8 218 6.4 16.1 0.03 0.46 0.05 92 1010.2
20260507051308 8 223 4.8 16.1 0.03 0.46 0.05 92 1010.3
20260507050811 8 216 6.4 12.9 0.03 0.46 0.05 92 1010.2
20260507050308 8 264 8.0 16.1 0.03 0.46 0.05 92 1010.1
20260507045805 8 216 6.4 16.1 0.03 0.46 0.05 91 1010.2
20260507045306 8 222 4.8 12.9 0.03 0.46 0.05 92 1010.1
20260507044805 8 291 6.4 14.5 0.03 0.46 0.05 92 1010.1
20260507044306 8 217 6.4 16.1 0.03 0.46 0.05 92 1010.1
20260507043807 8 234 4.8 16.1 0.03 0.46 0.05 91 1010.1
20260507043411 8 241 6.4 14.5 0.03 0.46 0.05 91 1009.9
20260507043322 8 195 6.4 14.5 0.03 0.46 0.05 91 1010.0
20260507042306 8 217 8.0 14.5 0.00 0.43 0.03 91 1009.9
20260507041804 8 216 8.0 16.1 0.00 0.43 0.03 91 1009.9
20260507041304 8 269 8.0 16.1 0.00 0.43 0.03 91 1009.8
20260507040801 8 240 6.4 14.5 0.00 0.43 0.03 92 1009.8
20260507040302 8 230 6.4 14.5 0.00 0.43 0.03 92 1009.7
20260507035804 8 215 6.4 11.3 0.00 0.43 0.03 92 1009.7
20260507035300 8 234 6.4 11.3 0.00 0.43 0.03 92 1009.6
20260507034909 9 216 4.8 12.9 0.00 0.46 0.03 91 1009.5
20260507034827 8 217 4.8 12.9 0.00 0.43 0.03 91 1009.7
20260507033803 8 217 3.2 9.7 0.00 0.46 0.03 91 1009.5
20260507033259 9 242 4.8 14.5 0.00 0.46 0.03 91 1009.5
20260507032801 9 217 6.4 14.5 0.00 0.46 0.03 91 1009.4
20260507032301 9 246 6.4 16.1 0.00 0.46 0.03 91 1009.4
20260507032031 9 234 4.8 12.9 0.00 0.46 0.03 91 1009.4
20260507031833 9 233 6.4 16.1 0.00 0.46 0.03 91 1009.4
20260507030759 9 217 3.2 11.3 0.00 0.46 0.03 92 1009.4
20260507030302 9 245 4.8 9.7 0.00 0.46 0.03 92 1009.3
20260507025803 9 255 4.8 11.3 0.00 0.46 0.03 92 1009.3
20260507025343 10 243 4.8 9.7 0.00 0.46 0.03 92 1009.2
20260507025326 10 260 4.8 11.3 0.00 0.46 0.03 92 1009.1
20260507025306 9 269 6.4 14.5 0.00 0.46 0.03 92 1009.3
20260507025253 10 217 3.2 9.7 0.00 0.46 0.03 92 1009.1
20260507024924 10 247 4.8 14.5 0.00 0.46 0.03 92 1009.2
20260507024044 10 263 6.4 11.3 0.00 0.46 0.03 92 1009.2
20260507022848 10 234 3.2 9.7 0.00 0.46 0.03 92 1009.2
20260507021225 10 234 4.8 12.9 0.00 0.46 0.03 92 1009.1
20260507020722 10 217 4.8 12.9 0.00 0.46 0.03 92 1009.1
20260507020221 10 205 4.8 12.9 0.00 0.46 0.03 92 1009.0
20260507015717 10 217 3.2 12.9 0.00 0.46 0.03 92 1009.0
20260507015215 10 217 4.8 14.5 0.00 0.46 0.03 92 1009.0
20260507014910 10 217 3.2 9.7 0.00 0.46 0.03 92 1009.0
20260507014744 10 217 4.8 14.5 0.00 0.46 0.03 92 1009.0
20260507013711 10 218 4.8 11.3 0.00 0.46 0.03 92 1009.0
20260507013208 10 217 4.8 11.3 0.00 0.46 0.03 92 1009.0
20260507012711 10 252 4.8 12.9 0.00 0.46 0.03 92 1008.9
20260507012204 10 216 4.8 12.9 0.00 0.46 0.03 92 1009.0
20260507011705 10 227 6.4 12.9 0.00 0.46 0.03 92 1008.9
20260507011204 10 256 6.4 14.5 0.00 0.46 0.03 92 1008.9
20260507010713 10 234 6.4 14.5 0.00 0.46 0.03 92 1008.8
20260507010630 10 203 4.8 12.9 0.00 0.46 0.03 93 1008.9
20260507010306 10 211 6.4 14.5 0.00 0.46 0.03 92 1008.9
20260507005208 10 222 4.8 12.9 0.00 0.46 0.03 92 1008.9
20260507004702 10 216 4.8 11.3 0.00 0.46 0.03 92 1008.8
20260507004201 10 216 4.8 12.9 0.00 0.46 0.03 92 1008.8
20260507003705 10 236 4.8 12.9 0.00 0.46 0.03 92 1008.8
20260507002650 10 238 3.2 8.0 0.03 0.46 0.03 92 1008.8
20260507001651 10 218 4.8 11.3 0.03 0.46 0.03 92 1008.8
20260507000646 10 217 4.8 11.3 0.03 0.46 0.03 92 1008.9
20260507000149 10 242 3.2 9.7 0.03 0.46 0.03 92 1008.9
20260506235641 10 217 3.2 9.7 0.03 0.46 0.03 92 1008.8
20260506235317 10 220 6.4 11.3 0.03 0.46 0.03 92 1008.8
20260506235203 10 216 4.8 11.3 0.03 0.46 0.03 92 1008.9
20260506234138 10 250 8.0 16.1 0.03 0.46 0.03 92 1008.9
20260506233830 10 217 4.8 11.3 0.00 0.43 0.00 92 1008.7
20260506233708 10 217 8.0 16.1 0.03 0.46 0.03 92 1008.8
20260506233207 10 253 4.8 14.5 0.00 0.43 0.00 92 1008.7
20260506231637 10 241 4.8 12.9 0.00 0.43 0.00 92 1008.7
20260506231134 10 222 3.2 11.3 0.00 0.43 0.00 92 1008.6
20260506230132 10 215 3.2 8.0 0.00 0.43 0.00 92 1008.6
20260506225728 10 217 3.2 9.7 0.00 0.43 0.00 92 1008.4
20260506225648 10 210 3.2 9.7 0.00 0.43 0.00 92 1008.5
20260506224630 10 240 3.2 9.7 0.00 0.43 0.00 92 1008.4
20260506224123 11 247 1.6 8.0 0.00 0.43 0.00 92 1008.4
20260506223615 11 217 1.6 6.4 0.03 0.43 0.00 92 1008.3
20260506223114 11 222 3.2 9.7 0.03 0.43 0.00 92 1008.3
20260506222604 10 249 4.8 11.3 0.03 0.43 0.00 92 1008.2
20260506222059 11 285 4.8 11.3 0.03 0.43 0.00 92 1008.2
20260506221556 11 280 3.2 9.7 0.03 0.43 0.00 92 1008.2
20260506221047 11 216 3.2 8.0 0.05 0.43 0.00 92 1008.2
20260506220546 11 215 1.6 6.4 0.08 0.43 0.00 92 1008.3
20260506220040 11 232 1.6 6.4 0.13 0.43 0.00 92 1008.1
20260506215617 11 239 3.2 8.0 0.23 0.43 0.43 92 1008.2
20260506215544 11 264 1.6 6.4 0.18 0.43 0.43 92 1008.2
20260506214532 11 247 3.2 8.0 0.25 0.43 0.43 92 1008.2
20260506214032 11 253 4.8 8.0 0.30 0.43 0.43 92 1008.2
20260506213532 11 251 4.8 9.7 0.30 0.43 0.43 92 1008.2
20260506213036 11 265 4.8 9.7 0.30 0.43 0.43 92 1008.2
20260506212037 11 257 4.8 11.3 0.33 0.43 0.43 92 1008.3
20260506211532 11 234 4.8 11.3 0.33 0.43 0.41 92 1008.3
20260506211033 11 249 6.4 11.3 0.33 0.38 0.38 91 1008.2
20260506210538 11 231 6.4 11.3 0.30 0.36 0.33 91 1008.3
20260506210039 11 241 4.8 14.5 0.25 0.33 0.30 91 1008.3
20260506205657 11 217 6.4 16.1 0.15 0.23 0.20 91 1008.3
20260506205555 11 217 6.4 14.5 0.20 0.25 0.25 91 1008.3
20260506204652 11 216 6.4 16.1 0.10 0.15 0.15 90 1008.3
20260506204118 11 212 4.8 14.5 0.08 0.15 0.15 90 1008.2
20260506203021 11 225 1.6 6.4 0.05 0.13 0.13 90 1008.2
20260506202524 11 241 1.6 4.8 0.05 0.10 0.10 90 1008.1
20260506202020 11 241 1.6 6.4 0.05 0.10 0.08 89 1008.1
20260506201524 11 236 1.6 6.4 0.03 0.08 0.08 89 1008.0
20260506201019 11 219 3.2 8.0 0.00 0.05 0.05 89 1008.1
20260506200036 11 217 3.2 8.0 0.00 0.05 0.05 89 1008.0
20260506195025 11 241 4.8 9.7 0.00 0.05 0.05 89 1007.8
20260506194527 11 215 3.2 8.0 0.00 0.05 0.05 89 1007.8
20260506194217 11 285 0.0 3.2 0.00 0.05 0.05 89 1007.5
20260506194210 11 285 1.6 6.4 0.00 0.05 0.05 89 1007.4
20260506194047 11 217 0.0 6.4 0.00 0.05 0.05 89 1007.6
20260506192519 11 285 1.6 6.4 0.00 0.05 0.05 90 1007.4
20260506192004 11 296 1.6 6.4 0.00 0.05 0.05 89 1007.3
20260506191517 11 319 1.6 4.8 0.00 0.05 0.05 90 1007.1
20260506191006 11 319 0.0 3.2 0.00 0.05 0.05 89 1007.2
20260506190506 11 319 1.6 6.4 0.00 0.05 0.05 90 1006.9
20260506185952 11 319 1.6 6.4 0.00 0.05 0.05 89 1007.0
20260506185446 11 265 0.0 0.0 0.00 0.05 0.05 88 1007.0
20260506184939 12 226 0.0 3.2 0.03 0.05 0.05 88 1007.0
20260506184438 12 226 3.2 8.0 0.03 0.05 0.05 88 1006.8
20260506183921 12 295 1.6 8.0 0.03 0.05 0.05 89 1006.8
20260506183419 12 305 1.6 4.8 0.03 0.05 0.05 89 1006.7
20260506182911 12 305 1.6 4.8 0.03 0.08 0.05 90 1006.7
20260506182406 12 316 1.6 4.8 0.05 0.08 0.05 90 1006.7
20260506181902 11 320 1.6 6.4 0.05 0.08 0.05 90 1006.6
20260506181639 12 320 1.6 4.8 0.05 0.15 0.05 89 1006.5
20260506181426 11 327 1.6 6.4 0.05 0.10 0.05 89 1006.5
20260506180401 12 320 0.0 4.8 0.05 0.15 0.05 89 1006.6
20260506174355 12 305 0.0 3.2 0.03 0.61 0.05 87 1006.7
20260506173857 12 265 0.0 3.2 0.03 0.81 0.05 86 1006.7
20260506173356 13 262 0.0 3.2 0.03 0.89 0.05 83 1006.7
20260506172850 13 260 1.6 6.4 0.03 0.89 0.03 82 1006.7
20260506172351 13 259 3.2 8.0 0.00 0.89 0.03 81 1006.7
20260506171855 13 278 4.8 8.0 0.00 0.89 0.03 81 1006.6
20260506171400 13 277 4.8 11.3 0.00 0.89 0.03 80 1006.5
20260506170852 13 295 3.2 11.3 0.00 0.89 0.03 79 1006.4
20260506170353 14 295 3.2 9.7 0.00 0.89 0.03 79 1006.3
20260506165849 14 319 3.2 12.9 0.00 0.89 0.03 77 1006.3
20260506163844 15 302 3.2 6.4 0.00 0.89 0.03 71 1006.3
20260506162951 15 322 3.2 8.0 0.00 0.89 0.03 70 1006.3
20260506161836 15 306 3.2 8.0 0.00 0.89 0.03 69 1006.3
20260506161337 16 293 3.2 8.0 0.00 0.89 0.03 68 1006.3
20260506160843 16 326 1.6 6.4 0.00 0.89 0.03 68 1006.3
20260506160739 16 352 0.0 3.2 0.00 0.89 0.03 68 1006.3
20260506160428 16 329 0.0 6.4 0.00 0.89 0.03 68 1006.4
20260506155336 16 350 0.0 3.2 0.00 0.89 0.03 69 1006.4
20260506154836 16 350 0.0 4.8 0.00 0.89 0.03 69 1006.5
20260506154334 16 350 1.6 6.4 0.00 0.89 0.03 68 1006.5
20260506153831 16 350 1.6 6.4 0.00 0.89 0.03 67 1006.5
20260506153332 16 327 1.6 6.4 0.00 0.89 0.03 69 1006.5
20260506152833 16 14 3.2 8.0 0.00 0.89 0.03 68 1006.4
20260506150828 16 284 1.6 6.4 0.00 0.89 0.03 64 1006.4
20260506150321 16 216 1.6 3.2 0.00 0.89 0.03 63 1006.4
20260506145815 16 215 1.6 4.8 0.00 0.89 0.03 62 1006.5
20260506145311 16 248 1.6 8.0 0.00 0.89 0.03 64 1006.5
20260506144809 16 269 1.6 8.0 0.00 0.89 0.03 64 1006.5
20260506144311 16 307 3.2 8.0 0.00 0.89 0.03 65 1006.5
20260506143808 16 222 3.2 8.0 0.00 0.89 0.03 65 1006.6
20260506143312 16 215 1.6 8.0 0.00 0.89 0.03 62 1006.6
20260506142808 16 246 1.6 6.4 0.00 0.89 0.03 63 1006.6
20260506142307 16 217 1.6 4.8 0.00 0.89 0.03 62 1006.5
20260506141805 16 243 3.2 8.0 0.00 0.89 0.03 65 1006.5
20260506141312 17 241 4.8 9.7 0.00 0.89 0.03 62 1006.6
20260506141222 16 217 3.2 9.7 0.00 0.89 0.03 62 1006.7
20260506140920 16 213 3.2 9.7 0.00 0.89 0.03 61 1006.6
20260506140358 16 215 3.2 9.7 0.00 0.89 0.03 62 1006.7
20260506134808 16 167 3.2 8.0 0.00 0.89 0.03 62 1006.7
20260506134305 16 215 1.6 8.0 0.00 0.89 0.03 62 1006.8
20260506133806 16 217 3.2 11.3 0.00 0.89 0.03 63 1006.9
20260506133308 16 210 4.8 11.3 0.00 0.89 0.03 62 1006.9
20260506133037 16 217 6.4 12.9 0.00 0.89 0.03 62 1007.1
20260506132854 16 173 6.4 12.9 0.00 0.89 0.03 62 1006.9
20260506131934 16 251 4.8 11.3 0.00 0.89 0.03 62 1007.1
20260506130810 16 287 4.8 9.7 0.00 0.89 0.03 62 1007.2
20260506130620 16 216 8.0 14.5 0.00 0.89 0.03 61 1007.2
20260506130403 16 217 6.4 14.5 0.00 0.89 0.03 61 1007.2
20260506125306 16 182 4.8 14.5 0.00 0.89 0.03 61 1007.3
20260506124804 16 219 4.8 12.9 0.00 0.89 0.03 62 1007.3
20260506124434 16 218 3.2 9.7 0.00 0.89 0.03 63 1007.1
20260506124428 16 167 4.8 14.5 0.00 0.89 0.03 61 1007.1
20260506124335 16 158 4.8 9.7 0.00 0.89 0.03 62 1007.2
20260506122802 16 153 6.4 14.5 0.00 0.89 0.03 63 1007.1
20260506122305 16 217 6.4 12.9 0.00 0.89 0.03 63 1007.3
20260506121932 16 215 4.8 12.9 0.00 0.89 0.03 66 1007.3
20260506121836 16 242 6.4 12.9 0.00 0.89 0.03 62 1007.3
20260506120804 16 216 3.2 12.9 0.00 0.89 0.03 65 1007.4
20260506120303 15 217 3.2 9.7 0.00 0.89 0.03 70 1007.4
20260506115802 15 215 6.4 14.5 0.00 0.89 0.03 69 1007.4
20260506115420 16 212 6.4 14.5 0.00 0.89 0.03 68 1007.5
20260506114836 16 217 4.8 12.9 0.00 0.89 0.03 67 1007.6
20260506113808 15 196 8.0 16.1 0.00 0.89 0.03 71 1007.6
20260506113305 15 140 4.8 11.3 0.00 0.89 0.03 70 1007.7
20260506112802 15 215 6.4 11.3 0.00 0.89 0.03 72 1007.7
20260506112301 15 248 6.4 11.3 0.00 0.89 0.03 72 1007.7
20260506111801 15 273 6.4 12.9 0.00 0.89 0.03 71 1007.7
20260506111258 15 215 6.4 12.9 0.00 0.89 0.03 71 1007.7
20260506110754 15 205 4.8 11.3 0.00 0.89 0.03 71 1007.7
20260506110255 15 175 4.8 17.7 0.00 0.89 0.03 72 1007.7
20260506105751 15 179 6.4 17.7 0.00 0.89 0.03 71 1007.7
20260506105253 15 151 6.4 14.5 0.00 0.89 0.03 72 1007.7
20260506104748 15 190 4.8 11.3 0.00 0.89 0.03 72 1007.7
20260506104248 15 204 6.4 14.5 0.00 0.89 0.03 72 1007.8
20260506103749 15 189 6.4 14.5 0.00 0.89 0.03 74 1007.8
20260506103551 15 245 4.8 12.9 0.00 0.89 0.03 74 1007.9
20260506103328 15 197 4.8 12.9 0.00 0.89 0.03 74 1007.9
20260506102247 14 215 6.4 12.9 0.00 0.89 0.03 75 1007.9
20260506101749 14 176 4.8 12.9 0.00 0.89 0.03 76 1007.8
20260506101249 14 153 3.2 9.7 0.00 0.89 0.03 77 1007.9
20260506100744 14 217 3.2 11.3 0.00 0.89 0.03 75 1007.8
20260506100247 14 217 4.8 11.3 0.00 0.89 0.03 77 1007.8
20260506095742 14 213 4.8 12.9 0.00 0.89 0.03 75 1007.9
20260506095352 13 214 6.4 16.1 0.00 0.89 0.03 75 1007.8
20260506095306 13 172 4.8 12.9 0.00 0.89 0.03 76 1007.9
20260506094243 14 189 8.0 16.1 0.00 0.89 0.03 75 1007.8
20260506093744 14 205 8.0 16.1 0.00 0.89 0.03 74 1007.8
20260506093623 14 215 4.8 12.9 0.00 0.89 0.03 74 1007.7
20260506093336 14 225 6.4 16.1 0.00 0.89 0.03 74 1007.7
20260506092243 14 272 3.2 11.3 0.00 0.89 0.03 76 1007.7
20260506091742 13 200 3.2 9.7 0.00 0.89 0.03 77 1007.8
20260506090735 13 216 4.8 9.7 0.00 0.89 0.03 77 1007.8